Hourly Data Report for September 08, 2017

All times are specified in Local Standard Time (LST). Add 1 hour to adjust for Daylight Saving Time where and when it is observed.

PETAWAWA AWOS 2
ONTARIO

45°57'00.000" N
77°19'00.000" W
130.10 m
6106396
71625
YWA

Download Data

Hourly Data (September 2017)
Hourly Data Report for September 8, 2017
Temp Definition
°C
Dew Point Temp Definition
°C
Rel Hum Definition
%
Wind Dir Definition
10's deg

Wind Spd Definition
km/h
Visibility Definition
km
Stn Press Definition
kPa
Hmdx Definition


Wind Chill Definition


Weather Definition


TIME
00:00 10.4 9.2 92 27 4 14.5 99.55     LegendNANA
01:00 10.0 9.3 95 27 6 14.5 99.59     LegendNANA
02:00 10.4 10.1 98 26 6 8.0 99.63     LegendNANA
03:00 10.7 10.6 99 28 7 4.0 99.67     Drizzle
04:00 11.0 10.6 97 30 15 8.0 99.72     Drizzle
05:00 10.8 10.0 95 32 13 14.5 99.80     Drizzle
06:00 10.6 9.9 95 30 9 14.5 99.93     LegendNANA
07:00 10.8 9.6 92 31 15 14.5 100.03     LegendNANA
08:00 11.0 9.6 91 30 17 14.5 100.15     LegendNANA
09:00 11.6 9.2 85 31 17 14.5 100.25     LegendNANA
10:00 12.3 8.6 78 32 19 14.5 100.30     LegendNANA
11:00 14.6 8.9 69 32 24 14.5 100.34     LegendNANA
12:00 13.9 7.9 67 32 30 14.5 100.39     LegendNANA
13:00 13.9 8.1 68 32 24 14.5 100.46     LegendNANA
14:00 13.9 7.9 67 32 24 14.5 100.53     LegendNANA
15:00 14.1 8.1 67 32 19 14.5 100.57     LegendNANA
16:00 13.3 7.3 67 32 17 14.5 100.63     LegendNANA
17:00 13.8 7.0 64 31 9 14.5 100.67     LegendNANA
18:00 12.8 7.0 68 31 13 14.5 100.74     LegendNANA
19:00 12.1 7.6 74 29 9 14.5 100.79     LegendNANA
20:00 11.8 7.2 73 31 13 14.5 100.88     LegendNANA
21:00 11.3 6.9 74 32 17 14.5 100.92     LegendNANA
22:00 11.1 6.4 73 32 19 14.5 100.97     LegendNANA
23:00 10.9 6.3 73 30 7 14.5 101.04     LegendNANA

Notes on Data Quality.

Legend

  • E = Estimated
  • M = Missing
  • NA = Not Available
  • ‡ = Partner data that is not subject to review by the National Climate Archives
Date modified: